This is the latest recevied weather packets stored in our database for station/object SR5WXW. If no packets are shown the sender has not sent any weather packets the latest 10 day(s).
| Time | Temp. | Humidity | Pressure | Rain* | Wind** | Luminosity | Snow |
|---|---|---|---|---|---|---|---|
| 1788559547 | 21.67° C | 61% | 1007 hPa | - | - | - | - |
| 1788559547 | 21.67° C | 62% | 1006 hPa | - | - | - | - |
| 1788559547 | 21.67° C | 60% | 1008 hPa | - | - | - | - |
| 1788559547 | 22.22° C | 60% | 1007 hPa | - | - | - | - |
| 1788559547 | 21.67° C | 60% | 1007 hPa | - | - | - | - |
| 1788559547 | 21.67° C | 64% | 1008 hPa | - | - | - | - |
| 1788559546 | 21.67° C | 64% | 1009 hPa | - | - | - | - |
| 1788559545 | 21.67° C | 60% | 1009 hPa | - | - | - | - |
| 1788559545 | 21.67° C | 60% | 1010 hPa | - | - | - | - |
| 1788559545 | 20.56° C | 64% | 1010 hPa | - | - | - | - |
| 1788559545 | 20.56° C | 64% | 1011 hPa | - | - | - | - |
| 1788559545 | 20.56° C | 73% | 1011 hPa | - | - | - | - |
| 1788559545 | 19.44° C | 74% | 1011 hPa | - | - | - | - |
| 1788559545 | 20° C | 75% | 1011 hPa | - | - | - | - |
| 1788559544 | 18.33° C | 82% | 1011 hPa | - | - | - | - |
| 1788559544 | 19.44° C | 76% | 1011 hPa | - | - | - | - |
| 1788559544 | 19.44° C | 75% | 1011 hPa | - | - | - | - |
| 1788559544 | 18.89° C | 78% | 1011 hPa | - | - | - | - |
| 1788559544 | 18.89° C | 81% | 1011 hPa | - | - | - | - |
| 1788559544 | 18.33° C | 80% | 1011 hPa | - | - | - | - |
| 1788506257 | 17.78° C | 82% | 1011 hPa | - | - | - | - |
| 1788505657 | 17.78° C | 83% | 1011 hPa | - | - | - | - |
| 1788505056 | 17.78° C | 85% | 1011 hPa | - | - | - | - |
| 1788504456 | 17.22° C | 83% | 1012 hPa | - | - | - | - |
| 1788503856 | 17.22° C | 84% | 1011 hPa | - | - | - | - |
* Rain since midnight (hover to see other rain measurements)
** Current wind speed in m/s (hover to see current wind gust speed)